| time (UTC) | temp F | wind direction | speed MPH | gust MPH | rain 1hr in | rain 24hr in | rain mn in | humidity % | barometer mb |
| 20260906053101 | 57 | 0 | 0.0 | 0.0 | 0.00 | 0.12 | 0.00 | 93 | 1015.0 |
| 20260906051602 | 58 | 0 | 0.0 | 0.0 | 0.00 | 0.12 | 0.00 | 93 | 1015.0 |
| 20260906050108 | 58 | 0 | 0.0 | 0.0 | 0.00 | 0.12 | 0.00 | 93 | 1015.1 |
| 20260906044604 | 58 | 0 | 0.0 | 0.0 | 0.00 | 0.12 | 0.00 | 92 | 1015.1 |
| 20260906043104 | 59 | 0 | 0.0 | 0.0 | 0.00 | 0.12 | 0.00 | 92 | 1015.0 |
| 20260906041605 | 59 | 0 | 0.0 | 0.0 | 0.00 | 0.12 | 0.00 | 92 | 1015.1 |
| 20260906040121 | 59 | 0 | 0.0 | 0.0 | 0.00 | 0.12 | 0.00 | 92 | 1015.3 |
| 20260906034604 | 59 | 0 | 0.0 | 0.0 | 0.00 | 0.12 | 0.12 | 91 | 1015.1 |
| 20260906033124 | 59 | 0 | 0.0 | 0.0 | 0.00 | 0.12 | 0.12 | 91 | 1015.0 |
| 20260906031618 | 59 | 0 | 0.0 | 0.0 | 0.00 | 0.12 | 0.12 | 90 | 1015.2 |
| 20260906030109 | 60 | 0 | 0.0 | 0.0 | 0.00 | 0.12 | 0.12 | 90 | 1015.1 |
| 20260906024610 | 60 | 0 | 0.0 | 0.0 | 0.00 | 0.12 | 0.12 | 89 | 1015.0 |
| 20260906023105 | 60 | 0 | 0.0 | 0.0 | 0.00 | 0.12 | 0.12 | 88 | 1015.0 |
| 20260906021615 | 61 | 0 | 0.0 | 0.0 | 0.00 | 0.12 | 0.12 | 87 | 1014.8 |
| 20260906020106 | 62 | 0 | 0.0 | 0.0 | 0.00 | 0.12 | 0.12 | 87 | 1014.6 |
| 20260906014603 | 62 | 0 | 0.0 | 0.0 | 0.00 | 0.12 | 0.12 | 86 | 1014.6 |
| 20260906013109 | 63 | 0 | 0.0 | 0.0 | 0.00 | 0.12 | 0.12 | 84 | 1014.5 |
| 20260906011606 | 63 | 0 | 0.0 | 0.0 | 0.00 | 0.12 | 0.12 | 82 | 1014.5 |
| 20260906010106 | 64 | 0 | 0.0 | 0.0 | 0.00 | 0.12 | 0.12 | 81 | 1014.4 |
| 20260906004607 | 65 | 0 | 0.0 | 0.0 | 0.00 | 0.12 | 0.12 | 79 | 1014.1 |
| 20260906003104 | 66 | 0 | 0.0 | 0.0 | 0.00 | 0.12 | 0.12 | 77 | 1014.1 |
| 20260906001605 | 68 | 0 | 0.0 | 0.0 | 0.00 | 0.12 | 0.12 | 73 | 1014.0 |
| 20260906000109 | 70 | 0 | 0.0 | 1.0 | 0.00 | 0.12 | 0.12 | 68 | 1014.0 |
| 20260905234607 | 71 | 0 | 0.0 | 3.0 | 0.00 | 0.12 | 0.12 | 66 | 1013.8 |
| 20260905233104 | 73 | 0 | 0.0 | 1.0 | 0.00 | 0.12 | 0.12 | 64 | 1013.8 |
| 20260905231608 | 74 | 117 | 0.0 | 2.0 | 0.00 | 0.12 | 0.12 | 62 | 1013.6 |
| 20260905230109 | 74 | 306 | 1.0 | 6.0 | 0.00 | 0.12 | 0.12 | 61 | 1013.6 |
| 20260905224611 | 74 | 49 | 2.0 | 8.0 | 0.00 | 0.12 | 0.12 | 64 | 1013.4 |
| 20260905223109 | 74 | 331 | 1.0 | 3.0 | 0.00 | 0.12 | 0.12 | 68 | 1013.5 |
| 20260905221605 | 74 | 84 | 3.0 | 7.0 | 0.00 | 0.12 | 0.12 | 69 | 1013.3 |
| 20260905220106 | 74 | 65 | 2.0 | 7.0 | 0.00 | 0.12 | 0.12 | 71 | 1013.2 |
| 20260905214606 | 74 | 323 | 1.0 | 6.0 | 0.00 | 0.12 | 0.12 | 71 | 1013.0 |
| 20260905213115 | 75 | 28 | 2.0 | 7.0 | 0.00 | 0.12 | 0.12 | 70 | 1012.8 |
| 20260905211612 | 75 | 46 | 3.0 | 7.0 | 0.00 | 0.12 | 0.12 | 72 | 1012.8 |
| 20260905210108 | 74 | 53 | 1.0 | 4.0 | 0.00 | 0.12 | 0.12 | 73 | 1012.9 |
| 20260905204618 | 74 | 1 | 2.0 | 5.0 | 0.00 | 0.12 | 0.12 | 74 | 1012.9 |
| 20260905203131 | 74 | 51 | 1.0 | 8.0 | 0.00 | 0.12 | 0.12 | 74 | 1013.0 |
| 20260905201613 | 75 | 326 | 3.0 | 8.0 | 0.00 | 0.12 | 0.12 | 73 | 1013.1 |
| 20260905200119 | 76 | 299 | 3.0 | 8.0 | 0.00 | 0.12 | 0.12 | 76 | 1013.1 |
| 20260905194612 | 77 | 336 | 2.0 | 9.0 | 0.00 | 0.12 | 0.12 | 75 | 1013.1 |
| 20260905193104 | 77 | 344 | 1.0 | 5.0 | 0.00 | 0.12 | 0.12 | 78 | 1013.0 |
| 20260905191606 | 77 | 311 | 1.0 | 6.0 | 0.00 | 0.12 | 0.12 | 78 | 1013.0 |
| 20260905190106 | 76 | 0 | 1.0 | 7.0 | 0.00 | 0.12 | 0.12 | 82 | 1012.9 |
| 20260905184611 | 75 | 64 | 2.0 | 7.0 | 0.00 | 0.12 | 0.12 | 82 | 1013.1 |
| 20260905183107 | 76 | 61 | 2.0 | 7.0 | 0.00 | 0.12 | 0.12 | 83 | 1013.3 |
| 20260905181603 | 76 | 71 | 3.0 | 8.0 | 0.00 | 0.12 | 0.12 | 82 | 1013.2 |
| 20260905180106 | 76 | 0 | 0.0 | 6.0 | 0.00 | 0.12 | 0.12 | 83 | 1013.3 |
| 20260905174607 | 75 | 51 | 0.0 | 3.0 | 0.00 | 0.13 | 0.12 | 84 | 1013.4 |
| 20260905173106 | 74 | 0 | 0.0 | 1.0 | 0.00 | 0.13 | 0.12 | 90 | 1013.4 |
| 20260905171603 | 73 | 96 | 0.0 | 3.0 | 0.00 | 0.13 | 0.12 | 92 | 1013.5 |
| 20260905170127 | 73 | 345 | 0.0 | 4.0 | 0.00 | 0.13 | 0.12 | 92 | 1013.6 |
| 20260905164606 | 73 | 0 | 0.0 | 4.0 | 0.00 | 0.16 | 0.12 | 93 | 1013.6 |
| 20260905163103 | 73 | 0 | 0.0 | 0.0 | 0.01 | 0.16 | 0.12 | 93 | 1013.8 |
| 20260905161604 | 73 | 0 | 0.0 | 0.0 | 0.12 | 0.16 | 0.12 | 94 | 1013.8 |
| 20260905154610 | 72 | 0 | 0.0 | 0.0 | 0.12 | 0.16 | 0.12 | 93 | 1013.9 |
| 20260905153104 | 73 | 0 | 0.0 | 0.0 | 0.11 | 0.15 | 0.11 | 92 | 1013.8 |
| 20260905151617 | 74 | 0 | 0.0 | 0.0 | 0.00 | 0.04 | 0.00 | 88 | 1013.5 |
| 20260905144603 | 73 | 0 | 0.0 | 0.0 | 0.00 | 0.12 | 0.00 | 90 | 1013.3 |
| 20260905143106 | 73 | 0 | 0.0 | 0.0 | 0.00 | 0.12 | 0.00 | 92 | 1013.3 |
| 20260905141605 | 73 | 0 | 0.0 | 0.0 | 0.00 | 0.12 | 0.00 | 93 | 1013.2 |
| 20260905134608 | 72 | 85 | 0.0 | 1.0 | 0.00 | 0.18 | 0.00 | 96 | 1013.2 |
| 20260905133101 | 71 | 0 | 0.0 | 0.0 | 0.00 | 0.18 | 0.00 | 96 | 1013.2 |
| 20260905131608 | 71 | 0 | 0.0 | 1.0 | 0.00 | 0.18 | 0.00 | 96 | 1013.5 |
| 20260905124602 | 70 | 0 | 0.0 | 0.0 | 0.00 | 0.18 | 0.00 | 96 | 1013.1 |
| 20260905123105 | 69 | 0 | 0.0 | 0.0 | 0.00 | 0.18 | 0.00 | 96 | 1013.3 |
| 20260905121601 | 69 | 0 | 0.0 | 0.0 | 0.00 | 0.18 | 0.00 | 96 | 1013.3 |
| 20260905120106 | 69 | 0 | 0.0 | 0.0 | 0.00 | 0.18 | 0.00 | 96 | 1013.0 |
| 20260905114604 | 68 | 0 | 0.0 | 0.0 | 0.00 | 0.18 | 0.00 | 96 | 1013.0 |
| 20260905113101 | 68 | 0 | 0.0 | 0.0 | 0.00 | 0.18 | 0.00 | 96 | 1013.0 |
| 20260905111604 | 68 | 0 | 0.0 | 0.0 | 0.00 | 0.18 | 0.00 | 96 | 1013.0 |
| 20260905110113 | 68 | 0 | 0.0 | 0.0 | 0.00 | 0.18 | 0.00 | 96 | 1013.2 |
| 20260905104604 | 68 | 0 | 0.0 | 0.0 | 0.00 | 0.18 | 0.00 | 96 | 1013.3 |
| 20260905103102 | 68 | 0 | 0.0 | 0.0 | 0.00 | 0.18 | 0.00 | 96 | 1013.8 |
| 20260905101611 | 68 | 0 | 0.0 | 0.0 | 0.00 | 0.18 | 0.00 | 96 | 1013.8 |
| 20260905094602 | 67 | 0 | 0.0 | 0.0 | 0.00 | 0.18 | 0.00 | 96 | 1013.6 |
| 20260905093126 | 67 | 0 | 0.0 | 0.0 | 0.00 | 0.18 | 0.00 | 96 | 1013.0 |
| 20260905091608 | 67 | 0 | 0.0 | 0.0 | 0.00 | 0.18 | 0.00 | 96 | 1012.6 |
| 20260905084605 | 67 | 0 | 0.0 | 0.0 | 0.00 | 0.18 | 0.00 | 96 | 1012.6 |
| 20260905083111 | 67 | 0 | 0.0 | 0.0 | 0.00 | 0.18 | 0.00 | 96 | 1012.4 |
| 20260905081604 | 67 | 0 | 0.0 | 0.0 | 0.00 | 0.18 | 0.00 | 96 | 1011.9 |
| 20260905080108 | 67 | 0 | 0.0 | 0.0 | 0.00 | 0.18 | 0.00 | 96 | 1012.1 |
| 20260905074604 | 67 | 0 | 0.0 | 0.0 | 0.00 | 0.18 | 0.00 | 95 | 1012.3 |
| 20260905073103 | 67 | 0 | 0.0 | 0.0 | 0.00 | 0.18 | 0.00 | 96 | 1012.3 |
| 20260905071601 | 67 | 0 | 0.0 | 0.0 | 0.00 | 0.18 | 0.00 | 95 | 1012.6 |
| 20260905070116 | 68 | 0 | 0.0 | 0.0 | 0.00 | 0.18 | 0.00 | 95 | 1012.2 |
| 20260905064602 | 68 | 0 | 0.0 | 0.0 | 0.00 | 0.18 | 0.00 | 95 | 1012.5 |
| 20260905063102 | 68 | 0 | 0.0 | 0.0 | 0.00 | 0.18 | 0.00 | 95 | 1012.4 |
| 20260905061610 | 68 | 0 | 0.0 | 0.0 | 0.00 | 0.18 | 0.00 | 95 | 1013.0 |
| 20260905060101 | 69 | 0 | 0.0 | 0.0 | 0.00 | 0.18 | 0.00 | 95 | 1013.3 |
| 20260905054609 | 69 | 0 | 0.0 | 0.0 | 0.00 | 0.19 | 0.00 | 95 | 1013.4 |